Location: Newark
(46.7000°N, 60.6000°W)
Time: 19:41:02
(UTC+00:00)

N. Korean satellite - Pass Details

Date: 21 September 2020
Orbit: 452 x 505 km, 97.2° (Epoch: 28 October)

Event Time Altitude Azimuth Distance (km) Brightness Sun altitude
Rises 08:37:28 0° 29° (NNE) 2,609 11.0 -12.9°
Reaches altitude 10° 08:40:16 10° 52° (NE) 1,710 10.5 -12.4°
Maximum altitude 08:42:33 16° 91° (E) 1,384 10.1 -12.0°
Drops below altitude 10° 08:44:47 10° 129° (SE) 1,685 9.8 -11.7°
Sets 08:47:30 0° 153° (SSE) 2,548 10.4 -11.2°
